SCP
0 0 1 2 2 2 2 2 3 3 3 3 3 2 2 2 2 2 1 1 1 1
0 0 1 2 3 2 2 2 3 3 3 3 2 2 2 3 3 2 1 1 1 0
0 0 0 1 2 2 2 1 2 2 3 3 3 3 3 4 4 2 1 1 1 1
0 0 0 0 1 1 2 2 1 2 3 3 3 3 3 3 3 1 1 1 0 0
0 0 0 0 0 1 1 1 1 2 2 3 3 3 3 3 1 1 1 1 1 0
0 0 0 0 0 1 1 2 2 2 3 3 3 3 2 2 1 1 1 1 1 1
0 0 0 0 1 1 2 2 2 2 2 3 3 2 2 1 1 1 0 0 1 1
0 1 1 1 1 2 2 2 2 3 3 3 2 2 2 1 1 0 0 0 0 0
1 1 1 1 2 2 2 2 3 3 2 2 2 1 0 0 1 0 0 0 0 0
1 1 1 1 2 2 2 3 2 2 2 2 1 0 0 0 0 0 0 0 0 0
1 1 1 2 2 2 3 3 3 2 2 1 0 0 0 0 0 0 0 0 0 0
1 0 1 2 2 3 3 2 1 1 0 0 0 0 0 0 0 0 0 0 0 0
1 1 2 2 3 3 2 1 0 0 0 0 0 0 0 0 0 0 0 0 0 0
1 2 1 2 2 1 0 0 0 0 0 0 0 0 0 0 0 0 0 0 0 0
Wind_Speed_500mb
53 62 75 85 83 85 82 80 82 67 64 55 47 46 51 50 42 39 37 41 40 35
55 53 68 73 66 72 76 73 58 58 64 51 46 49 48 46 41 36 36 37 37 36
55 54 56 70 72 63 64 53 53 63 57 49 50 48 46 42 37 31 30 30 33 37
55 56 53 64 64 51 46 43 51 59 55 52 51 48 47 40 31 32 32 36 39 36
57 56 58 63 65 58 53 49 50 53 52 53 50 50 45 40 34 37 40 41 41 41
59 59 62 65 73 69 64 58 55 56 56 56 52 49 40 41 36 39 42 41 40 37
61 63 62 65 70 69 64 61 59 56 57 54 51 47 44 41 37 39 35 33 32 34
63 63 68 69 74 64 60 58 57 58 56 55 49 43 46 42 41 33 31 31 31 31
63 67 72 73 67 64 60 58 57 56 57 54 45 46 46 45 34 30 25 25 26 29
53 58 69 71 64 62 61 61 60 57 52 48 50 51 46 37 31 28 23 24 26 31
54 60 68 69 65 66 66 64 59 57 57 57 58 50 44 34 28 25 25 26 24 23
60 64 74 74 73 67 64 62 58 63 63 61 52 46 41 33 28 27 23 20 18 18
64 74 82 81 73 68 67 70 72 66 57 51 49 43 35 29 26 23 22 20 21 20
64 70 75 71 72 74 75 76 70 66 56 51 41 37 31 25 25 23 22 23 24 21
Wind_Direction_500mb
265 254 244 243 245 253 255 258 264 260 242 233 241 250 263 255 239 232 234 240 233 236
257 259 247 238 242 252 257 262 256 240 234 232 238 251 251 236 229 225 235 237 230 225
255 257 251 240 236 246 256 251 232 230 229 230 244 245 230 220 215 229 223 223 221 221
255 252 252 236 227 225 242 242 229 230 227 242 238 227 216 208 221 214 212 217 215 212
255 248 248 238 230 229 231 236 232 227 232 235 227 216 207 218 214 212 219 220 212 213
250 245 240 237 232 232 230 230 228 230 231 222 214 208 208 215 209 214 219 215 215 220
243 245 236 236 230 232 228 225 220 224 215 212 208 203 206 198 201 209 206 208 215 221
242 241 234 231 227 224 217 215 216 207 202 201 201 201 193 187 192 193 205 213 218 222
249 238 230 225 221 212 208 204 198 194 196 194 198 192 183 183 188 189 197 209 217 223
240 226 219 211 204 198 196 188 186 188 190 190 181 172 172 178 184 195 209 222 233 236
222 210 203 193 187 184 180 181 184 184 179 173 166 169 173 177 195 211 226 235 230 228
203 195 184 177 175 175 179 179 181 172 166 167 167 172 178 189 203 219 220 210 208 201
194 184 176 172 174 176 175 167 162 158 162 167 167 171 179 195 208 200 189 183 169 162
178 175 175 170 170 168 165 157 158 160 161 163 171 175 183 187 180 172 167 159 159 161
Wind_Speed_850mb
53 62 75 85 83 85 82 80 82 67 64 55 47 46 51 50 42 39 37 41 40 35
55 53 68 73 66 72 76 73 58 58 64 51 46 49 48 46 41 36 36 37 37 36
55 54 56 70 72 63 64 53 53 63 57 49 50 48 46 42 37 31 30 30 33 37
55 56 53 64 64 51 46 43 51 59 55 52 51 48 47 40 31 32 32 36 39 36
57 56 58 63 65 58 53 49 50 53 52 53 50 50 45 40 34 37 40 41 41 41
59 59 62 65 73 69 64 58 55 56 56 56 52 49 40 41 36 39 42 41 40 37
61 63 62 65 70 69 64 61 59 56 57 54 51 47 44 41 37 39 35 33 32 34
63 63 68 69 74 64 60 58 57 58 56 55 49 43 46 42 41 33 31 31 31 31
63 67 72 73 67 64 60 58 57 56 57 54 45 46 46 45 34 30 25 25 26 29
53 58 69 71 64 62 61 61 60 57 52 48 50 51 46 37 31 28 23 24 26 31
54 60 68 69 65 66 66 64 59 57 57 57 58 50 44 34 28 25 25 26 24 23
60 64 74 74 73 67 64 62 58 63 63 61 52 46 41 33 28 27 23 20 18 18
64 74 82 81 73 68 67 70 72 66 57 51 49 43 35 29 26 23 22 20 21 20
64 70 75 71 72 74 75 76 70 66 56 51 41 37 31 25 25 23 22 23 24 21
Wind_Direction_850mb
265 254 244 243 245 253 255 258 264 260 242 233 241 250 263 255 239 232 234 240 233 236
257 259 247 238 242 252 257 262 256 240 234 232 238 251 251 236 229 225 235 237 230 225
255 257 251 240 236 246 256 251 232 230 229 230 244 245 230 220 215 229 223 223 221 221
255 252 252 236 227 225 242 242 229 230 227 242 238 227 216 208 221 214 212 217 215 212
255 248 248 238 230 229 231 236 232 227 232 235 227 216 207 218 214 212 219 220 212 213
250 245 240 237 232 232 230 230 228 230 231 222 214 208 208 215 209 214 219 215 215 220
243 245 236 236 230 232 228 225 220 224 215 212 208 203 206 198 201 209 206 208 215 221
242 241 234 231 227 224 217 215 216 207 202 201 201 201 193 187 192 193 205 213 218 222
249 238 230 225 221 212 208 204 198 194 196 194 198 192 183 183 188 189 197 209 217 223
240 226 219 211 204 198 196 188 186 188 190 190 181 172 172 178 184 195 209 222 233 236
222 210 203 193 187 184 180 181 184 184 179 173 166 169 173 177 195 211 226 235 230 228
203 195 184 177 175 175 179 179 181 172 166 167 167 172 178 189 203 219 220 210 208 201
194 184 176 172 174 176 175 167 162 158 162 167 167 171 179 195 208 200 189 183 169 162
178 175 175 170 170 168 165 157 158 160 161 163 171 175 183 187 180 172 167 159 159 161